Probability
0 0 0 0 0 0 0 0 0 0 0 0 0 3 10 10 13 13 10 6 10 13 16 23 10 16 23 19 13 10 10 10 3 3 3 3 0 0 0 0 0 0 0 0
0 0 0 0 0 0 0 0 0 0 0 0 0 0 3 10 10 13 6 3 6 13 13 16 13 10 13 13 6 6 6 6 6 3 3 0 0 0 0 0 0 0 0 0
0 0 0 0 0 0 0 0 0 0 0 0 0 0 0 3 6 6 3 3 3 13 13 13 10 6 13 13 13 10 6 6 3 0 0 0 0 0 0 0 0 0 0 0
0 0 0 0 0 0 0 0 0 0 0 0 0 0 0 0 0 0 3 3 3 3 16 10 10 10 10 10 6 10 6 3 0 0 0 0 0 0 0 0 0 0 0 0
0 0 0 0 0 0 0 0 0 0 0 0 0 0 0 0 0 0 0 3 3 6 13 10 10 10 10 6 6 6 3 3 0 0 0 0 0 0 0 0 0 0 0 0
0 0 0 0 0 0 0 0 0 0 0 0 0 0 0 0 0 0 3 3 6 10 10 3 6 10 10 6 6 6 3 0 0 0 0 0 0 0 0 0 0 0 0 0
0 0 0 0 0 0 0 0 0 0 0 0 0 0 0 0 0 0 0 3 3 10 6 3 6 3 6 10 10 6 6 0 0 0 0 0 0 0 0 0 0 0 0 0
0 0 0 0 0 0 0 0 0 0 0 0 0 0 0 0 0 0 0 3 6 6 3 3 6 6 6 13 10 6 6 3 0 0 0 0 0 0 0 0 0 0 0 0
0 0 0 0 0 0 0 0 0 0 0 0 0 0 0 0 0 0 0 3 6 6 3 3 3 3 3 10 3 6 6 3 0 0 0 0 0 0 0 0 0 0 0 0
0 0 0 0 0 0 0 0 0 0 0 0 0 0 0 0 0 0 3 6 6 0 0 3 3 0 0 0 3 6 3 3 0 0 0 0 0 0 0 0 0 0 0 0
0 0 0 0 0 0 0 0 0 0 0 0 0 0 0 0 0 0 3 6 6 3 0 0 0 0 0 3 3 6 6 0 0 0 0 0 0 0 0 0 0 0 0 0
0 0 0 0 0 0 0 0 0 0 0 0 0 0 0 0 0 0 0 3 0 3 0 0 0 0 0 3 3 3 3 0 0 0 0 0 0 0 0 0 0 0 0 0
0 0 0 0 0 0 0 0 0 0 0 0 0 0 0 0 0 0 0 0 0 0 0 0 0 0 0 0 3 3 3 0 0 0 0 0 0 0 0 0 0 0 0 0
0 0 0 0 0 0 0 0 0 0 0 0 0 0 0 0 0 0 0 0 3 0 0 0 0 0 0 0 0 0 0 0 0 0 0 0 0 0 0 0 0 0 0 0
0 0 0 0 0 0 0 0 0 0 0 0 0 0 0 0 0 0 0 0 3 0 0 0 0 0 0 0 0 0 0 0 0 0 0 0 0 0 0 0 0 0 0 0
0 0 0 0 0 0 0 0 0 0 0 0 0 0 0 0 0 0 0 0 0 0 0 0 0 0 0 0 0 0 0 0 0 0 0 0 0 0 0 0 0 0 0 0
0 0 0 0 0 0 0 0 0 0 0 0 0 0 0 0 0 0 0 0 0 0 0 0 0 0 0 0 0 0 0 0 0 0 0 0 0 0 0 0 0 0 0 0
0 0 0 0 0 0 0 0 0 0 0 0 0 0 0 0 0 0 0 0 0 0 0 0 0 0 0 0 0 0 0 0 0 0 0 0 0 0 0 0 0 0 0 0
0 0 0 0 0 0 0 0 0 0 0 0 0 0 0 0 0 0 0 0 0 0 0 0 0 0 0 0 0 0 0 0 0 0 0 0 0 0 0 0 0 0 0 0
0 0 0 0 0 0 0 0 0 0 0 0 0 0 0 0 0 0 0 0 0 0 0 0 0 0 0 0 0 0 0 0 0 0 0 0 0 0 0 0 0 0 0 0
0 0 0 0 0 0 0 0 0 0 0 0 0 0 0 0 0 0 0 0 0 0 0 0 0 0 0 0 0 0 0 0 0 0 0 0 0 0 0 0 0 0 0 0
0 0 0 0 0 0 0 0 0 0 0 0 0 0 0 0 0 0 0 0 0 0 0 0 0 0 0 0 0 0 0 0 0 0 0 0 0 0 0 0 0 0 0 0
0 0 0 0 0 0 0 0 0 0 0 0 0 0 0 0 0 0 0 0 0 0 0 0 0 0 0 0 0 0 0 0 0 0 0 0 0 0 0 0 0 0 0 0
0 0 0 0 0 0 0 0 0 0 0 0 0 0 0 0 0 0 0 0 0 0 0 0 0 0 0 0 0 0 0 0 0 0 0 0 0 0 0 0 0 0 0 0
0 0 0 0 0 0 0 0 0 0 0 0 0 0 0 0 0 0 0 0 0 0 0 0 0 0 0 0 0 0 0 0 0 0 0 0 0 0 0 0 0 0 0 0
0 0 0 0 0 0 0 0 0 0 0 0 0 0 0 0 0 0 0 0 0 0 0 0 0 0 0 0 0 0 0 0 0 0 0 0 0 0 0 0 0 0 0 0
Height
5875 5876 5875 5874 5873 5873 5871 5870 5868 5866 5863 5860 5857 5854 5851 5848 5845 5843 5841 5840 5839 5838 5839 5840 5842 5844 5847 5849 5852 5855 5858 5860 5861 5862 5863 5864 5865 5866 5866 5866 5866 5867 5867 5866
5873 5873 5873 5872 5871 5870 5869 5868 5866 5864 5861 5859 5856 5853 5850 5847 5845 5843 5841 5840 5839 5838 5840 5841 5843 5845 5846 5848 5852 5855 5857 5858 5859 5861 5862 5864 5864 5865 5865 5865 5865 5865 5865 5865
5871 5872 5870 5870 5869 5868 5867 5866 5864 5862 5859 5857 5855 5852 5849 5847 5845 5843 5842 5840 5840 5840 5841 5843 5844 5845 5847 5849 5852 5854 5856 5857 5859 5860 5862 5863 5864 5864 5864 5864 5864 5864 5863 5863
5868 5868 5868 5868 5867 5866 5865 5864 5862 5860 5858 5856 5854 5852 5849 5847 5845 5844 5843 5842 5841 5841 5842 5844 5845 5846 5848 5850 5852 5854 5856 5857 5858 5860 5861 5862 5863 5863 5863 5864 5863 5863 5863 5862
5865 5865 5866 5865 5865 5864 5863 5861 5860 5858 5856 5855 5853 5851 5850 5847 5846 5845 5844 5843 5843 5842 5843 5844 5846 5847 5849 5850 5852 5854 5855 5857 5858 5859 5860 5861 5862 5862 5862 5862 5862 5862 5861 5861
5863 5863 5863 5863 5862 5861 5860 5859 5858 5857 5855 5855 5853 5851 5850 5848 5846 5846 5845 5845 5844 5844 5845 5845 5847 5848 5849 5851 5852 5854 5855 5857 5858 5859 5860 5860 5861 5861 5861 5861 5861 5861 5860 5859
5860 5860 5860 5860 5860 5859 5859 5858 5857 5855 5854 5854 5852 5851 5851 5848 5847 5846 5846 5846 5846 5846 5846 5847 5848 5849 5850 5851 5852 5854 5855 5856 5857 5858 5859 5859 5860 5860 5860 5860 5859 5859 5858 5857
5857 5858 5858 5857 5857 5857 5856 5856 5855 5854 5853 5852 5851 5850 5851 5848 5847 5846 5846 5846 5846 5847 5847 5848 5848 5849 5850 5851 5852 5854 5855 5856 5856 5857 5857 5858 5858 5859 5859 5858 5858 5857 5856 5855
5853 5855 5855 5854 5854 5854 5853 5853 5853 5852 5851 5851 5850 5850 5850 5848 5847 5846 5846 5846 5846 5847 5847 5848 5849 5849 5850 5851 5852 5853 5854 5855 5855 5856 5856 5856 5857 5857 5857 5856 5856 5855 5854 5853
5850 5851 5851 5851 5851 5851 5851 5851 5850 5850 5849 5848 5849 5848 5848 5847 5846 5846 5846 5845 5846 5846 5847 5847 5848 5849 5850 5850 5851 5852 5853 5853 5854 5854 5854 5855 5855 5855 5855 5854 5853 5852 5851 5850
5845 5847 5848 5848 5847 5847 5848 5848 5847 5847 5846 5846 5846 5848 5846 5846 5845 5845 5845 5845 5845 5846 5846 5847 5847 5848 5849 5849 5850 5850 5851 5851 5851 5852 5852 5853 5853 5852 5852 5851 5850 5849 5848 5846
5841 5842 5843 5844 5844 5843 5843 5844 5844 5844 5843 5843 5843 5847 5844 5844 5843 5843 5843 5843 5844 5844 5845 5845 5845 5846 5847 5847 5847 5848 5848 5849 5849 5850 5850 5850 5849 5849 5848 5847 5846 5845 5844 5842
5837 5838 5838 5839 5841 5840 5839 5840 5839 5840 5840 5840 5840 5844 5841 5841 5841 5841 5841 5842 5842 5842 5843 5843 5843 5844 5844 5844 5845 5845 5846 5846 5846 5847 5846 5846 5846 5845 5844 5843 5842 5840 5839 5837
5831 5832 5834 5835 5835 5835 5835 5835 5835 5835 5836 5836 5837 5838 5838 5838 5839 5839 5839 5839 5839 5840 5840 5841 5841 5841 5842 5842 5842 5843 5843 5843 5843 5843 5842 5842 5841 5840 5839 5838 5837 5835 5833 5831
5826 5828 5828 5829 5829 5830 5830 5830 5830 5831 5831 5832 5833 5833 5835 5835 5835 5836 5836 5836 5836 5837 5837 5838 5838 5838 5839 5839 5839 5839 5839 5839 5839 5838 5838 5837 5836 5835 5834 5833 5831 5830 5827 5825
5820 5822 5823 5824 5824 5824 5825 5825 5825 5826 5826 5827 5828 5829 5830 5831 5831 5832 5832 5832 5833 5833 5834 5834 5835 5835 5835 5835 5835 5835 5835 5834 5834 5833 5833 5832 5831 5830 5829 5827 5825 5823 5821 5819
5815 5816 5817 5818 5818 5818 5820 5821 5820 5821 5822 5822 5823 5825 5825 5826 5827 5828 5828 5828 5829 5829 5829 5830 5830 5830 5830 5830 5830 5830 5829 5829 5828 5828 5827 5826 5825 5823 5822 5820 5819 5816 5814 5811
5809 5810 5811 5812 5813 5813 5817 5815 5815 5816 5816 5817 5818 5819 5820 5821 5822 5823 5824 5824 5825 5825 5825 5825 5825 5825 5825 5825 5824 5824 5823 5823 5822 5822 5821 5819 5818 5817 5815 5813 5811 5809 5806 5804
5802 5804 5806 5807 5807 5808 5810 5810 5810 5810 5811 5812 5813 5814 5815 5815 5816 5818 5818 5819 5819 5820 5820 5820 5819 5819 5819 5818 5818 5817 5817 5816 5816 5815 5814 5812 5811 5809 5807 5805 5803 5801 5798 5795
5796 5798 5800 5801 5801 5803 5806 5804 5803 5805 5806 5808 5808 5809 5810 5810 5811 5812 5812 5812 5813 5813 5813 5813 5812 5812 5812 5811 5811 5811 5810 5809 5808 5807 5806 5804 5803 5801 5799 5797 5794 5792 5789 5786
5790 5792 5793 5794 5795 5796 5798 5798 5798 5800 5802 5802 5802 5803 5804 5804 5805 5806 5805 5806 5806 5806 5806 5806 5805 5805 5805 5804 5804 5803 5802 5801 5800 5799 5798 5796 5794 5792 5790 5788 5786 5783 5780 5777
5784 5786 5787 5787 5788 5792 5792 5792 5793 5794 5794 5794 5795 5796 5797 5798 5798 5798 5799 5799 5799 5799 5799 5799 5798 5798 5797 5797 5796 5795 5794 5793 5792 5791 5789 5787 5786 5784 5781 5779 5776 5773 5770 5767
5777 5779 5780 5782 5784 5784 5785 5786 5786 5787 5788 5788 5789 5790 5791 5791 5791 5792 5792 5792 5792 5792 5791 5791 5791 5791 5790 5789 5788 5788 5786 5785 5784 5782 5780 5778 5776 5774 5772 5769 5766 5763 5760 5756
5771 5772 5773 5775 5776 5777 5779 5779 5780 5781 5781 5781 5782 5783 5784 5785 5785 5785 5785 5785 5784 5784 5784 5783 5783 5783 5782 5781 5780 5779 5778 5777 5775 5773 5771 5769 5767 5764 5762 5759 5756 5752 5749 5745
5765 5766 5767 5768 5770 5771 5772 5773 5774 5774 5774 5775 5775 5776 5777 5777 5777 5778 5778 5777 5777 5776 5776 5776 5775 5774 5774 5773 5772 5771 5769 5768 5766 5764 5761 5759 5757 5754 5751 5748 5744 5741 5737 5733
5760 5761 5762 5763 5764 5765 5766 5766 5767 5767 5768 5768 5768 5769 5769 5769 5770 5770 5769 5769 5769 5769 5768 5767 5767 5766 5765 5763 5762 5761 5759 5758 5756 5754 5751 5748 5745 5742 5739 5736 5733 5729 5726 5721
Wind_Speed
9 9 10 11 12 11 11 12 12 13 14 15 14 14 13 12 11 9 7 4 1 1 5 8 10 13 14 13 12 11 11 9 8 6 4 4 3 3 4 5 5 6 7 8
10 10 11 12 12 12 12 13 13 13 13 14 13 13 12 11 9 7 6 4 1 2 5 8 10 11 12 12 11 10 10 8 7 5 4 3 3 3 3 4 4 5 6 6
10 10 12 12 12 12 12 13 13 14 14 13 12 11 12 10 9 7 4 3 2 4 7 8 9 10 11 11 10 9 8 7 6 5 4 3 2 2 2 2 3 4 5 6
11 12 12 11 12 13 12 13 13 13 13 12 12 11 11 9 7 5 2 3 3 4 6 7 8 10 10 9 9 8 7 6 6 5 4 3 2 1 0 1 2 4 5 6
11 12 12 12 12 13 12 13 13 12 12 10 10 11 10 9 6 4 1 2 3 4 5 6 8 10 10 9 8 7 6 5 5 5 4 3 2 1 0 1 2 4 5 7
12 12 11 11 11 12 12 12 12 11 11 9 9 9 8 7 6 3 0 1 2 3 4 5 7 9 8 8 8 7 6 6 5 4 3 2 1 0 0 1 3 4 6 8
11 12 12 12 12 12 12 12 12 11 10 8 8 8 7 6 6 3 2 2 3 4 4 5 7 8 8 8 7 7 6 6 5 4 3 2 1 0 1 2 4 5 7 9
11 10 11 12 12 12 12 12 12 13 11 8 8 7 6 5 5 4 4 3 3 4 4 5 6 7 7 7 7 6 6 5 5 4 3 2 1 1 2 3 5 6 8 9
13 11 11 12 12 12 13 13 13 13 12 10 8 7 6 6 6 5 4 4 4 4 5 6 6 7 7 7 7 6 6 6 5 4 3 2 2 2 3 4 6 7 9 10
15 14 13 12 13 13 14 14 15 14 14 12 8 8 8 7 6 5 5 5 5 6 6 7 7 7 7 7 7 6 6 5 4 4 3 3 3 4 4 6 7 9 11 13
17 16 14 15 15 15 15 15 15 15 15 14 11 9 9 8 7 7 6 6 6 6 7 7 8 8 7 7 7 7 6 6 5 5 5 5 5 6 7 8 10 12 14 15
19 18 17 16 16 17 16 16 16 16 15 14 13 10 10 10 8 7 7 7 8 8 9 9 9 9 8 8 7 7 7 7 7 7 7 7 7 8 9 11 13 14 16 17
20 19 17 16 16 16 17 17 17 17 16 15 14 11 11 10 9 8 8 9 9 10 11 11 11 11 10 10 9 9 9 9 9 9 9 9 10 11 12 13 15 17 18 19
20 19 17 16 16 17 18 18 18 18 17 16 14 13 12 12 11 11 11 11 12 12 12 13 13 13 12 12 12 11 11 11 11 12 12 12 13 14 15 16 17 19 20 22
19 18 18 18 18 19 19 18 19 19 18 17 16 16 14 14 14 13 14 14 14 14 15 14 14 14 14 14 13 13 13 13 13 14 14 14 15 16 17 18 19 21 23 24
20 20 19 19 20 21 20 18 19 19 18 17 16 16 15 15 15 15 15 15 15 16 16 16 15 14 15 15 15 14 15 15 16 16 16 17 18 19 20 21 22 23 25 26
21 21 19 19 20 20 19 18 19 19 18 18 17 16 17 16 16 16 16 16 16 16 16 16 16 16 16 16 17 17 17 18 18 19 20 20 21 22 22 23 25 26 27 29
22 22 20 19 19 19 16 17 19 18 18 17 16 16 16 16 16 17 17 17 18 18 18 18 18 18 18 18 18 19 19 20 20 21 22 23 24 25 25 26 28 29 30 31
21 21 21 21 20 18 17 19 19 18 17 16 15 15 16 17 17 16 17 18 19 20 20 20 20 20 20 20 21 21 21 21 22 23 24 25 26 27 28 29 30 31 32 33
21 22 23 22 22 20 17 19 19 18 16 15 16 16 17 18 18 18 19 19 20 21 22 22 22 22 22 22 22 22 23 23 24 25 25 27 28 29 30 31 32 33 34 35
22 22 23 24 23 21 18 19 19 19 17 17 18 19 19 18 19 20 21 21 22 22 22 22 23 23 24 24 24 24 24 25 26 27 28 29 30 31 32 33 34 35 36 37
22 23 23 23 23 21 19 19 20 19 19 19 19 19 19 19 20 21 22 23 23 23 24 24 24 24 25 25 24 25 26 27 28 29 30 31 32 33 34 35 36 37 38 38
22 22 21 22 21 20 19 19 20 20 20 20 20 20 19 20 21 22 23 24 23 24 25 25 26 26 26 25 26 27 28 28 29 30 31 33 34 35 36 38 38 39 40 40
21 21 21 20 20 19 18 18 19 20 21 21 21 21 22 22 23 24 25 25 24 24 25 27 27 26 27 27 27 29 30 30 31 33 34 35 36 37 39 40 41 42 42 43
20 20 20 20 19 19 19 19 19 20 21 21 22 23 24 24 25 25 26 26 25 25 26 27 28 27 28 28 29 30 31 33 34 35 36 38 39 40 41 42 43 44 44 45
21 21 20 20 20 20 19 19 20 21 21 21 21 22 24 25 25 26 26 27 27 27 27 27 28 29 30 31 32 32 34 35 35 37 39 40 41 43 44 45 45 45 46 46
Wind_Direction
278 278 281 285 288 294 298 305 313 321 325 330 332 331 327 327 330 330 334 337 342 165 170 172 176 180 183 181 182 191 194 194 198 206 217 231 251 265 282 296 303 303 306 308
269 272 277 283 287 293 299 304 312 319 325 328 330 332 332 332 333 336 344 359 37 121 142 160 166 176 177 178 182 185 189 195 199 201 207 217 244 267 287 300 304 308 313 316
264 264 273 280 285 291 301 309 312 317 322 325 328 331 336 334 332 334 343 10 72 121 130 133 149 157 168 174 178 185 187 186 192 194 196 209 225 257 298 318 331 335 339 336
256 257 269 280 286 292 300 308 309 310 317 325 330 335 337 338 337 341 7 61 95 133 137 139 149 156 163 169 174 175 174 179 183 183 189 200 207 222 280 339 347 348 353 347
247 251 265 279 288 291 298 306 308 308 312 317 327 335 337 339 341 349 46 81 99 127 140 150 157 162 165 164 165 165 166 167 170 170 173 176 183 191 285 353 358 353 349 347
245 253 266 279 286 291 297 303 304 305 307 310 322 330 336 337 338 345 180 152 145 140 136 151 164 167 163 160 159 160 165 167 168 167 168 175 174 171 349 357 356 349 345 344
248 255 267 277 286 290 294 301 305 305 304 302 304 313 323 329 321 309 257 192 163 161 163 159 162 167 165 162 163 166 169 171 171 171 171 174 171 328 340 341 340 340 339 340
246 253 267 277 281 285 288 293 298 302 304 295 287 299 309 316 320 298 266 231 195 184 180 173 170 172 172 173 173 174 175 176 177 179 179 192 228 291 320 329 333 334 334 335
246 248 260 272 278 281 283 285 291 295 298 297 289 280 289 298 304 297 269 247 234 214 202 195 190 186 182 182 182 181 183 184 187 193 204 229 256 283 304 317 324 327 326 326
247 249 251 263 271 275 276 280 285 290 295 291 284 279 277 281 286 281 273 254 243 229 217 208 202 194 190 191 191 192 195 199 205 215 231 246 260 279 293 305 313 317 318 320
250 253 255 262 267 269 272 278 283 284 291 288 279 276 269 268 274 271 264 258 248 238 224 218 214 210 208 206 205 208 212 216 224 232 243 254 268 283 292 299 306 309 313 317
253 258 261 266 267 265 270 276 282 282 285 285 280 272 265 261 266 266 259 254 246 240 234 230 226 223 223 222 223 227 230 232 236 244 253 263 274 283 291 298 303 306 310 313
256 259 263 267 267 267 269 272 276 277 278 279 279 272 264 254 257 260 260 257 248 242 240 237 235 233 233 235 237 240 242 244 247 254 262 271 279 285 291 296 299 303 307 310
255 259 262 267 273 272 269 272 273 273 274 275 273 267 262 256 254 257 259 259 253 249 245 241 239 239 240 241 242 244 247 251 254 259 266 273 280 286 290 293 297 300 304 308
253 259 261 264 270 271 269 272 273 273 273 273 269 265 264 259 255 255 256 256 253 250 247 242 242 243 243 244 246 250 253 257 260 263 268 274 280 286 290 293 296 300 304 306
253 262 265 264 268 270 266 269 272 273 274 272 268 264 261 260 259 259 259 255 253 249 246 244 245 247 247 248 252 256 259 262 265 267 271 277 281 286 290 293 296 298 301 304
256 260 264 267 268 268 264 268 271 274 274 273 269 262 257 257 257 256 258 255 251 247 246 246 248 249 250 252 257 260 264 266 269 272 275 280 283 286 290 293 295 297 299 302
258 261 266 269 268 268 271 272 273 272 273 274 269 259 255 255 254 256 259 258 256 252 248 248 252 253 255 256 260 264 267 269 272 275 278 281 284 287 290 293 295 297 299 301
255 260 266 269 268 271 269 272 275 274 271 268 265 259 256 256 255 258 261 261 258 256 255 255 255 257 259 262 264 266 269 271 274 277 280 282 285 288 290 292 294 296 298 300
256 259 263 266 269 273 271 271 272 272 268 266 263 263 264 261 259 259 262 263 259 258 258 258 258 259 260 261 265 268 270 273 276 279 281 283 286 289 291 293 294 296 297 299
257 259 261 265 270 270 268 269 271 270 272 264 261 261 264 263 260 260 262 261 259 257 260 261 260 261 261 262 267 270 272 275 278 281 283 284 287 289 291 293 294 296 297 298
256 259 260 262 267 266 262 266 268 270 267 263 262 259 259 258 259 261 262 261 259 258 261 263 265 265 266 268 270 273 274 277 279 282 284 285 287 289 291 293 294 296 297 299
255 258 261 262 263 261 261 265 266 265 265 263 261 258 258 259 260 262 264 265 263 264 265 266 267 268 270 272 274 275 278 280 282 283 284 286 287 289 290 292 294 296 297 298
255 256 258 260 260 260 262 266 265 263 263 262 261 259 256 257 259 262 265 268 266 265 267 266 265 267 270 272 274 277 279 281 282 282 284 286 287 289 290 292 293 295 296 297
256 258 258 257 256 256 261 263 260 261 262 261 260 257 257 260 261 263 266 268 267 265 265 265 265 267 270 273 275 277 279 280 282 283 284 285 287 288 289 290 292 293 295 296
254 254 254 255 255 258 261 263 262 262 263 263 262 260 259 259 262 264 265 265 265 266 265 265 267 269 271 273 275 277 279 280 282 283 285 285 286 288 290 291 292 293 294 296